シューメーカー第4彗星

199P/Shoemaker 4 (2023)

English version
Home page
Updated on May 29, 2022

---------------------------------------------------------------------

・ プロフィール

・ 写真集

・ 軌道要素

Epoch 2022 Jan. 21.0 TT = JDT 2459600.5
T 2023 Aug. 7.34747 TT                                  Rudenko
q   2.9107024            (2000.0)            P               Q
n   0.06895354     Peri.  191.71611     +0.22440662     +0.87877661
a   5.8897700      Node    92.36611     -0.85657695     +0.38396550
e   0.5058037      Incl.   24.93187     -0.46466935     -0.28341165
P  14.3
From 497 observations 2008 May 2-2022 Mar. 16, mean residual 0".6.
     Nongravitational parameters A1 = -0.37, A2 = -0.4411.

・ 星図

・ 光度変化

        m1 = 1.5 + 5 logΔ + 25 log r

---------------------------------------------------------------------

軌道要素はM.P.E.C. 2022-F14に掲載されたものです。
星図はステラナビゲータ Ver.10 (アストロアーツ) で作成したものです。
光度グラフはComet for Windowsで作成したものです。

---------------------------------------------------------------------

Copyright(C) Seiichi Yoshida (comet@aerith.net). All rights reserved.